Weather History for KCON - November, 2012

Change the Weather History Date:

Sunday, November 25, 2012

  Actual Average Record
Temperature  
Mean Temperature 33 °F 35 °F  
Max Temperature 37 °F 44 °F 64 °F (2004)
Min Temperature 28 °F 26 °F 5 °F (1956)
Degree Days  
Heating Degree Days 32 30  
Month to date heating degree days 679 645  
Since 1 July heating degree days 1285 1404  
Cooling Degree Days 0 0  
Month to date cooling degree days 0 0  
Year to date cooling degree days 569 452  
Moisture  
Dew Point 15 °F    
Average Humidity 47    
Maximum Humidity 69    
Minimum Humidity 24    
Precipitation  
Precipitation 0.00 in 0.12 in 2.04 in (2008)
Month to date precipitation 0.50 3.14  
Year to date precipitation 35.72 36.83  
Snow  
Snow 0.00 in 0.20 in 9.30 in (1971)
Month to date snowfall 1.0 1.7  
Since 1 July snowfall 1.0 1.7  
Since 1 September snowfall 1.0 1.7  
Snow Depth 0.00 in    
Sea Level Pressure  
Sea Level Pressure 29.73 in    
Wind  
Wind Speed 10 mph (West)    
Max Wind Speed 24 mph    
Max Gust Speed 35 mph    
Visibility 10 miles    
Events      
T = Trace of Precipitation, MM = Missing Value Source: NWS Daily Summary

Daily Weather History Graph

Daily Weather History Graph

Search for Another Location

Airport or City:

Trip Planner

Search our weather history database for the weather conditions in past years. The results will help you decide how hot, cold, wet, or windy it might be!

Date:

Astronomy

Nov. 25, 2012 Rise Set
Actual Time 6:51 AM EST 4:14 PM EST
Civil Twilight 6:20 AM EST 4:45 PM EST
Nautical Twilight 5:45 AM EST 5:20 PM EST
Astronomical Twilight 5:11 AM EST 5:54 PM EST
Moon 2:32 PM EST (11/25) 3:59 AM EST (11/25)
Length of Visible Light 10h 25m
Length of Day
9h 22m
Waxing Gibbous, 93% of the Moon is Illuminated
Nov 25
Waxing Gibbous
Nov 28
Full
Dec 6
Last Quarter
Dec 13
New
Dec 20
First Quarter

Hourly Weather History & Observations

Time (EST) Temp. Windchill Dew Point Humidity Pressure Visibility Wind Dir Wind Speed Gust Speed Precip Events Conditions
12:51 AM 28.9 °F 19.8 °F 19.0 °F 67% 29.63 in 10.0 mi West 10.4 mph 20.7 mph N/A   Partly Cloudy
1:51 AM 28.9 °F 18.2 °F 19.0 °F 67% 29.66 in 10.0 mi West 13.8 mph 20.7 mph N/A   Mostly Cloudy
2:51 AM 28.9 °F 19.2 °F 19.0 °F 67% 29.67 in 10.0 mi West 11.5 mph 20.7 mph N/A   Mostly Cloudy
3:51 AM 28.0 °F 20.0 °F 17.1 °F 63% 29.68 in 10.0 mi West 8.1 mph 19.6 mph N/A   Mostly Cloudy
4:51 AM 28.9 °F 19.8 °F 16.0 °F 58% 29.69 in 10.0 mi WNW 10.4 mph 17.3 mph N/A   Overcast
5:51 AM 28.9 °F 21.9 °F 15.1 °F 56% 29.70 in 10.0 mi West 6.9 mph - N/A   Overcast
6:51 AM 28.0 °F 18.1 °F 14.0 °F 56% 29.72 in 10.0 mi West 11.5 mph 19.6 mph N/A   Partly Cloudy
7:51 AM 28.9 °F 19.2 °F 14.0 °F 54% 29.72 in 10.0 mi WNW 11.5 mph 21.9 mph N/A   Overcast
8:51 AM 30.9 °F 21.2 °F 12.9 °F 47% 29.73 in 10.0 mi West 12.7 mph 20.7 mph N/A   Scattered Clouds
9:51 AM 32.0 °F 20.5 °F 12.0 °F 44% 29.73 in 10.0 mi West 18.4 mph 31.1 mph N/A   Clear
10:51 AM 33.1 °F 23.4 °F 10.0 °F 38% 29.73 in 10.0 mi WNW 13.8 mph 21.9 mph N/A   Clear
11:51 AM 33.1 °F 23.4 °F 8.1 °F 35% 29.72 in 10.0 mi WNW 13.8 mph 20.7 mph N/A   Clear
12:51 PM 35.1 °F 24.8 °F 6.1 °F 30% 29.70 in 10.0 mi West 17.3 mph 24.2 mph N/A   Clear
1:51 PM 37.0 °F 28.5 °F 3.9 °F 25% 29.70 in 10.0 mi WNW 13.8 mph 26.5 mph N/A   Clear
2:51 PM 35.1 °F 25.5 °F 7.0 °F 31% 29.70 in 10.0 mi West 15.0 mph 21.9 mph N/A   Partly Cloudy
3:51 PM 35.1 °F 25.2 °F 12.0 °F 39% 29.72 in 10.0 mi WNW 16.1 mph 21.9 mph N/A   Partly Cloudy
4:51 PM 33.1 °F 30.0 °F 14.0 °F 46% 29.73 in 10.0 mi Variable 3.5 mph - N/A   Clear
5:51 PM 32.0 °F 24.8 °F 18.0 °F 56% 29.75 in 10.0 mi WSW 8.1 mph - N/A   Partly Cloudy
6:51 PM 30.9 °F 25.2 °F 18.0 °F 59% 29.77 in 10.0 mi SW 5.8 mph - N/A   Partly Cloudy
7:51 PM 28.9 °F 23.9 °F 18.0 °F 64% 29.79 in 10.0 mi SW 4.6 mph - N/A   Clear
8:51 PM 28.9 °F 25.2 °F 19.0 °F 67% 29.79 in 10.0 mi WSW 3.5 mph - N/A   Clear
9:51 PM 28.9 °F 21.9 °F 18.0 °F 64% 29.80 in 10.0 mi WSW 6.9 mph - N/A   Clear
10:51 PM 30.0 °F - 19.0 °F 64% 29.81 in 10.0 mi Calm Calm - N/A   Overcast
11:51 PM 30.0 °F 26.5 °F 19.9 °F 66% 29.83 in 10.0 mi WSW 3.5 mph - N/A   Overcast